AE7VB Weather Reports


Display with metric or nautical units.
time (UTC)temp
F
wind
direction
speed
MPH
gust
MPH
rain 1hr
in
rain 24hr
in
rain mn
in
humidity
%
barometer
mb
20260506134443 49 132 0.0 1.0 0.00 0.00 0.00 72 1021.1
20260506133410 48 132 0.0 3.0 0.00 0.00 0.00 74 1021.1
20260506132409 47 132 2.0 3.0 0.00 0.00 0.00 74 1020.7
20260506131408 47 136 1.0 3.0 0.00 0.00 0.00 74 1020.7
20260506130407 47 137 0.0 3.0 0.00 0.00 0.00 74 1020.4
20260506125334 47 146 1.0 2.0 0.00 0.00 0.00 74 1020.8
20260506124333 47 146 0.0 3.0 0.00 0.00 0.00 72 1020.5
20260506123332 47 146 1.0 3.0 0.00 0.00 0.00 73 1020.5
20260506122331 47 144 1.0 3.0 0.00 0.00 0.00 73 1020.5
20260506121330 47 140 1.0 3.0 0.00 0.00 0.00 73 1020.4
20260506120329 46 150 1.0 2.0 0.00 0.00 0.00 73 1019.8
20260506115328 46 151 0.0 2.0 0.00 0.00 0.00 72 1019.9
20260506114327 46 151 0.0 3.0 0.00 0.00 0.00 73 1019.9
20260506113254 45 150 2.0 3.0 0.00 0.00 0.00 73 1019.9
20260506112222 45 151 1.0 1.0 0.00 0.00 0.00 72 1019.8
20260506111222 46 151 1.0 1.0 0.00 0.00 0.00 72 1019.9
20260506110221 46 150 0.0 0.0 0.00 0.00 0.00 71 1019.9
20260506105148 47 150 0.0 2.0 0.00 0.00 0.00 70 1020.0
20260506104147 46 150 1.0 2.0 0.00 0.00 0.00 71 1020.0
20260506103146 46 150 0.0 3.0 0.00 0.00 0.00 71 1020.0
20260506102113 45 150 2.0 3.0 0.00 0.00 0.00 72 1019.6
20260506101112 45 150 1.0 2.0 0.00 0.00 0.00 71 1019.5
20260506100111 46 149 1.0 2.0 0.00 0.00 0.00 71 1019.6
20260506095111 46 150 0.0 2.0 0.00 0.00 0.00 69 1019.7
20260506094110 47 150 0.0 1.0 0.00 0.00 0.00 68 1019.6
20260506093109 47 150 1.0 3.0 0.00 0.00 0.00 67 1019.6
20260506092108 47 149 1.0 3.0 0.00 0.00 0.00 68 1019.7
20260506091108 47 150 1.0 4.0 0.00 0.00 0.00 67 1019.7
20260506090107 47 187 1.0 3.0 0.00 0.00 0.00 67 1019.4
20260506085106 47 188 2.0 3.0 0.00 0.00 0.00 66 1019.4
20260506084106 47 188 1.0 3.0 0.00 0.00 0.00 67 1019.4
20260506083105 48 188 1.0 3.0 0.00 0.00 0.00 66 1019.5
20260506082104 49 223 1.0 3.0 0.00 0.00 0.00 64 1019.5
20260506081103 49 234 1.0 3.0 0.00 0.00 0.00 63 1019.6
20260506072956 49 155 1.0 4.0 0.00 0.00 0.00 64 1018.6
20260506071955 49 155 1.0 6.0 0.00 0.00 0.00 65 1018.6
20260506070954 49 154 2.0 6.0 0.00 0.00 0.00 65 1018.7
20260506061950 51 220 0.0 4.0 0.00 0.00 0.00 62 1018.7
20260506060949 52 218 3.0 4.0 0.00 0.00 0.00 59 1018.5
20260506050911 56 236 1.0 4.0 0.00 0.00 0.00 52 1018.2
20260506044908 57 276 2.0 7.0 0.00 0.00 0.00 50 1018.0
20260506043907 57 270 2.0 6.0 0.00 0.00 0.00 50 1018.0
20260506042834 57 272 2.0 7.0 0.00 0.00 0.00 50 1017.6
20260506041833 57 253 2.0 7.0 0.00 0.00 0.00 50 1017.6
20260506040833 57 268 3.0 8.0 0.00 0.00 0.00 51 1017.5
20260506035831 58 247 3.0 8.0 0.00 0.00 0.00 50 1017.5
20260506034830 58 261 3.0 7.0 0.00 0.00 0.00 50 1017.1
20260506033829 58 258 3.0 7.0 0.00 0.00 0.00 51 1017.1
20260506032757 59 257 2.0 8.0 0.00 0.00 0.00 51 1016.9
20260506031757 60 284 2.0 8.0 0.00 0.00 0.00 48 1016.9
20260506030755 60 286 4.0 7.0 0.00 0.00 0.00 49 1016.6
20260506025754 62 276 3.0 7.0 0.00 0.00 0.00 48 1016.7
20260506024722 63 295 2.0 8.0 0.00 0.00 0.00 46 1016.8
20260506023721 64 284 3.0 8.0 0.00 0.00 0.00 46 1016.5
20260506022720 65 280 3.0 9.0 0.00 0.00 0.00 45 1016.6
20260506021719 66 294 3.0 9.0 0.00 0.00 0.00 42 1016.6
20260506020647 66 297 2.0 9.0 0.00 0.00 0.00 40 1016.5
20260506015646 67 309 2.0 10.0 0.00 0.00 0.00 38 1016.4
20260506014614 68 305 2.0 10.0 0.00 0.00 0.00 37 1016.0
20260506013541 68 318 2.0 9.0 0.00 0.00 0.00 38 1015.9
20260506012540 69 330 2.0 9.0 0.00 0.00 0.00 38 1015.8
20260506011539 69 323 1.0 6.0 0.00 0.00 0.00 37 1015.8
20260506010539 70 323 2.0 9.0 0.00 0.00 0.00 35 1015.8
20260506005538 70 317 2.0 9.0 0.00 0.00 0.00 36 1015.8
20260506004536 70 319 2.0 6.0 0.00 0.00 0.00 38 1015.8
20260506003535 70 316 1.0 5.0 0.00 0.00 0.00 35 1015.8
20260506002534 70 321 2.0 9.0 0.00 0.00 0.00 35 1015.8
20260506001534 69 319 2.0 5.0 0.00 0.00 0.00 38 1015.8
20260506000532 68 10 1.0 5.0 0.00 0.00 0.00 38 1015.7
20260505235531 68 310 1.0 7.0 0.00 0.00 0.00 37 1015.8
20260505234530 70 303 2.0 11.0 0.00 0.00 0.00 37 1016.3
20260505233458 70 324 2.0 11.0 0.00 0.00 0.00 38 1016.0
20260505232457 69 312 2.0 10.0 0.00 0.00 0.00 40 1016.0
20260505231425 69 304 2.0 8.0 0.00 0.00 0.00 39 1016.0
20260505230352 69 328 2.0 9.0 0.00 0.00 0.00 37 1016.3
20260505225351 69 11 1.0 9.0 0.00 0.00 0.00 37 1016.4
20260505224350 69 19 2.0 4.0 0.00 0.00 0.00 37 1016.5
20260505223348 70 5 1.0 8.0 0.00 0.00 0.00 34 1016.5
20260505222347 70 324 2.0 8.0 0.00 0.00 0.00 36 1016.6
20260505221346 69 336 2.0 4.0 0.00 0.00 0.00 37 1017.0
20260505220345 69 10 2.0 7.0 0.00 0.00 0.00 38 1016.8
20260505215345 70 316 2.0 7.0 0.00 0.00 0.00 39 1017.2
20260505214344 69 325 1.0 10.0 0.00 0.00 0.00 38 1017.0
20260505213343 68 21 2.0 10.0 0.00 0.00 0.00 40 1016.9
20260505212342 69 1 1.0 5.0 0.00 0.00 0.00 39 1016.9
20260505211341 69 302 2.0 5.0 0.00 0.00 0.00 40 1016.9
20260505210339 68 14 2.0 6.0 0.00 0.00 0.00 44 1017.3
20260505205338 69 259 3.0 9.0 0.00 0.00 0.00 39 1017.3
20260505204337 69 304 2.0 9.0 0.00 0.00 0.00 41 1017.4
20260505203336 69 282 2.0 6.0 0.00 0.00 0.00 38 1017.5
20260505202334 68 97 1.0 7.0 0.00 0.00 0.00 41 1017.4
20260505201333 68 309 1.0 7.0 0.00 0.00 0.00 40 1017.4
20260505200332 68 349 2.0 5.0 0.00 0.00 0.00 40 1017.3
20260505195300 67 75 2.0 5.0 0.00 0.00 0.00 40 1017.3
20260505194259 67 31 1.0 3.0 0.00 0.00 0.00 39 1017.2
20260505193258 66 30 1.0 3.0 0.00 0.00 0.00 40 1017.2
20260505192257 66 36 1.0 3.0 0.00 0.00 0.00 42 1017.3
20260505191225 67 43 1.0 3.0 0.00 0.00 0.00 43 1017.5
20260505190224 66 67 1.0 3.0 0.00 0.00 0.00 48 1017.5
20260505185223 65 95 1.0 4.0 0.00 0.00 0.00 48 1017.4
20260505184221 65 52 1.0 9.0 0.00 0.00 0.00 53 1017.5
20260505183220 65 28 2.0 9.0 0.00 0.00 0.00 50 1017.4
20260505182219 65 48 2.0 6.0 0.00 0.00 0.00 53 1017.5
20260505181218 64 24 2.0 5.0 0.00 0.00 0.00 56 1017.5
20260505180216 64 18 1.0 5.0 0.00 0.00 0.00 55 1017.5
20260505175215 64 44 1.0 5.0 0.00 0.00 0.00 58 1017.6
20260505174142 63 55 1.0 4.0 0.00 0.00 0.00 58 1017.6
20260505173141 64 14 2.0 4.0 0.00 0.00 0.00 57 1017.7
20260505172141 63 17 1.0 3.0 0.00 0.00 0.00 60 1017.6
20260505171139 61 5 2.0 4.0 0.00 0.00 0.00 60 1017.5
20260505170137 60 17 1.0 4.0 0.00 0.00 0.00 61 1017.5
20260505165136 59 0 2.0 4.0 0.00 0.00 0.00 60 1017.3
20260505164136 59 37 1.0 4.0 0.00 0.00 0.00 63 1017.2
20260505163103 58 273 1.0 7.0 0.00 0.00 0.00 64 1017.2
20260505162102 58 298 2.0 7.0 0.00 0.00 0.00 67 1017.2
20260505161101 57 279 2.0 4.0 0.00 0.00 0.00 67 1017.1
20260505153057 55 277 2.0 4.0 0.00 0.00 0.00 69 1016.9
20260505152056 54 291 1.0 4.0 0.00 0.00 0.00 69 1016.9
20260505150952 54 300 2.0 3.0 0.00 0.00 0.00 71 1017.0